Location: Dimsdale
(55.1333°N, 118.9833°W)
Time: 00:21:55
(UTC+00:00)

Oscar 11 - Pass Details

Date: 05 December 2023
Orbit: 603 x 617 km, 97.7° (Epoch: 27 February)

Event Time Altitude Azimuth Distance (km) Brightness Sun altitude
Rises 12:46:28 0° 11° (NNE) 2,896 10.6 -26.7°
Reaches altitude 10° 12:48:41 10° 7° (N) 1,989 9.7 -26.4°
Enters shadow 12:48:50 11° 6° (N) 1,934 9.6 -26.3°
